Weather History for KCHS - May, 2013

Change the Weather History Date:

Monday, May 6, 2013

  Actual Average Record
Temperature  
Mean Temperature 66 °F 70 °F  
Max Temperature 75 °F 81 °F 95 °F (1952)
Min Temperature 56 °F 59 °F 44 °F (1973)
Degree Days  
Heating Degree Days 0 1  
Month to date heating degree days 2 6  
Since 1 July heating degree days 1839 1969  
Cooling Degree Days 1 6  
Month to date cooling degree days 13 31  
Year to date cooling degree days 136 149  
Growing Degree Days 15 (Base 50)    
Moisture  
Dew Point 53 °F    
Average Humidity 67    
Maximum Humidity 100    
Minimum Humidity 33    
Precipitation  
Precipitation 0.00 in 0.09 in 1.30 in (1984)
Month to date precipitation 1.37 0.56  
Year to date precipitation 21.82 13.85  
Sea Level Pressure  
Sea Level Pressure 29.88 in    
Wind  
Wind Speed 7 mph (WSW)    
Max Wind Speed 14 mph    
Max Gust Speed 20 mph    
Visibility 9 miles    
Events Fog    
T = Trace of Precipitation, MM = Missing Value Source: NWS Daily Summary

Daily Weather History Graph

Daily Weather History Graph

Search for Another Location

Airport or City:

Trip Planner

Search our weather history database for the weather conditions in past years. The results will help you decide how hot, cold, wet, or windy it might be!

Date:

Astronomy

May. 06, 2013 Rise Set
Actual Time 6:27 AM EDT 8:06 PM EDT
Civil Twilight 6:01 AM EDT 8:32 PM EDT
Nautical Twilight 5:29 AM EDT 9:04 PM EDT
Astronomical Twilight 4:55 AM EDT 9:38 PM EDT
Moon 4:18 AM EDT (5/6) 5:12 PM EDT (5/6)
Length of Visible Light 14h 31m
Length of Day
13h 38m
Waning Crescent, 11% of the Moon is Illuminated
May 6
Waning Crescent
May 9
New
May 18
First Quarter
May 25
Full
May 31
Last Quarter

Hourly Weather History & Observations

Time (EDT) Temp. Dew Point Humidity Pressure Visibility Wind Dir Wind Speed Gust Speed Precip Events Conditions
12:56 AM 63.0 °F 62.1 °F 97% 29.86 in 0.5 mi Calm Calm - N/A Fog Fog
1:56 AM 61.0 °F 59.0 °F 93% 29.85 in 1.0 mi SW 5.8 mph - N/A   Mist
2:12 AM 60.8 °F 60.8 °F 100% 29.85 in 3.0 mi SW 5.8 mph - N/A   Scattered Clouds
2:56 AM 60.1 °F 59.0 °F 96% 29.84 in 10.0 mi SSW 4.6 mph - N/A Fog Shallow Fog
3:56 AM 60.1 °F 57.9 °F 93% 29.84 in 8.0 mi SE 4.6 mph - N/A Fog Shallow Fog
4:56 AM 57.9 °F 55.9 °F 93% 29.85 in 10.0 mi SSW 4.6 mph - N/A Fog Shallow Fog
5:56 AM 57.9 °F 55.9 °F 93% 29.86 in 10.0 mi Calm Calm - N/A   Partly Cloudy
6:56 AM 57.0 °F 55.0 °F 93% 29.87 in 10.0 mi NNW 3.5 mph - N/A Fog Shallow Fog
7:56 AM 61.0 °F 55.9 °F 83% 29.89 in 10.0 mi West 5.8 mph - N/A   Clear
8:56 AM 63.0 °F 57.0 °F 81% 29.89 in 10.0 mi West 6.9 mph - N/A   Partly Cloudy
9:56 AM 66.0 °F 55.9 °F 70% 29.90 in 10.0 mi SW 8.1 mph - N/A   Scattered Clouds
10:56 AM 68.0 °F 55.0 °F 63% 29.91 in 10.0 mi SW 8.1 mph - N/A   Scattered Clouds
11:56 AM 70.0 °F 52.0 °F 53% 29.92 in 10.0 mi West 9.2 mph 16.1 mph N/A   Scattered Clouds
12:56 PM 70.0 °F 50.0 °F 49% 29.91 in 10.0 mi West 10.4 mph - N/A   Scattered Clouds
1:56 PM 72.0 °F 50.0 °F 46% 29.89 in 10.0 mi WSW 9.2 mph - N/A   Scattered Clouds
2:56 PM 73.0 °F 50.0 °F 44% 29.87 in 10.0 mi SW 12.7 mph - N/A   Scattered Clouds
3:56 PM 73.9 °F 48.0 °F 40% 29.86 in 10.0 mi WSW 8.1 mph - N/A   Scattered Clouds
4:56 PM 73.0 °F 46.0 °F 38% 29.85 in 10.0 mi WSW 11.5 mph - N/A   Partly Cloudy
5:56 PM 73.0 °F 43.0 °F 34% 29.86 in 10.0 mi West 9.2 mph - N/A   Partly Cloudy
6:56 PM 70.0 °F 45.0 °F 41% 29.86 in 10.0 mi West 9.2 mph - N/A   Partly Cloudy
7:56 PM 66.9 °F 46.0 °F 47% 29.88 in 10.0 mi West 6.9 mph - N/A   Partly Cloudy
8:56 PM 63.0 °F 48.0 °F 58% 29.90 in 10.0 mi West 4.6 mph - N/A   Partly Cloudy
9:56 PM 62.1 °F 48.0 °F 60% 29.93 in 10.0 mi WSW 5.8 mph - N/A   Partly Cloudy
10:56 PM 59.0 °F 48.0 °F 67% 29.93 in 10.0 mi West 4.6 mph - N/A   Clear
11:56 PM 59.0 °F 48.9 °F 69% 29.94 in 10.0 mi West 5.8 mph - N/A   Scattered Clouds